Debrecen, Hungary

12:23 PM CET on February 07, 2016 (GMT +0100)
Debrecen

Weather History for LHDC - November, 2012

Change the Weather History Date:

Saturday, November 3, 2012

  Actual Average Record
Temperature  
Mean Temperature 48 °F -  
Max Temperature 60 °F 46 °F - ()
Min Temperature 37 °F 33 °F - ()
Degree Days  
Heating Degree Days 17    
Moisture  
Dew Point 48 °F    
Average Humidity 89    
Maximum Humidity 100    
Minimum Humidity 69    
Precipitation  
Precipitation 0.00 in 0.06 in - ()
Sea Level Pressure  
Sea Level Pressure 30.01 in    
Wind  
Wind Speed 8 mph ()    
Max Wind Speed 16 mph    
Max Gust Speed -    
Visibility 3.8 miles    
Events Fog    
T = Trace of Precipitation, MM = Missing Value Source: Averaged Metar Reports

Daily Weather History Graph

Daily Weather History Graph

Search for Another Location

Airport or City:

Trip Planner

Search our weather history database for the weather conditions in past years. The results will help you decide how hot, cold, wet, or windy it might be!

Date:

Astronomy

Nov. 03, 2012 Rise Set
Actual Time 6:20 AM CET 4:12 PM CET
Civil Twilight 5:48 AM CET 4:45 PM CET
Nautical Twilight 5:11 AM CET 5:21 PM CET
Astronomical Twilight 4:36 AM CET 5:57 PM CET
Moon 7:29 PM CET (11/3) 10:19 AM CET (11/3)
Length of Visible Light 10h 57m
Length of Day
9h 52m
Waning Gibbous, 82% of the Moon is Illuminated
Nov 3
Waning Gibbous
Nov 7
Last Quarter
Nov 13
New
Nov 20
First Quarter
Nov 28
Full

Hourly Weather History & Observations

Time (CET) Temp. Windchill Dew Point Humidity Pressure Visibility Wind Dir Wind Speed Gust Speed Precip Events Conditions
1:00 AM 42 °F - 41 °F 95% 29.94 in - SW 4.5 mph - -  
1:31 AM 42.8 °F 38.6 °F 42.8 °F 100% 29.95 in - SSW 6.9 mph - N/A   Unknown
5:15 AM 41.0 °F 34.7 °F 41.0 °F 100% 29.95 in 0.3 mi SSE 10.4 mph - N/A Fog Fog
5:45 AM 42.8 °F 38.6 °F 42.8 °F 100% 29.98 in 0.2 mi South 6.9 mph - N/A Fog Fog
6:00 AM - - - N/A% - 1.0 mi South 8.1 mph - N/A   Mostly Cloudy
6:15 AM 44.6 °F 40.7 °F 44.6 °F 100% 30.01 in 0.1 mi SSW 6.9 mph - N/A Fog Fog
6:45 AM 42.8 °F 39.3 °F 42.8 °F 100% 30.01 in 0.1 mi West 5.8 mph - N/A Fog Fog
7:00 AM 43 °F - 42 °F 97% 30.02 in 0 mi West 4.5 mph - - Fog Partial Fog
7:15 AM 42.8 °F - 42.8 °F 100% 30.01 in 0.1 mi Calm Calm - N/A Fog Fog
7:44 AM 44.6 °F 39.7 °F 44.6 °F 100% 30.04 in 0.9 mi South 9.2 mph - N/A   Overcast
7:45 AM 44.6 °F 40.7 °F 44.6 °F 100% 30.04 in 0.9 mi South 6.9 mph - N/A   Overcast
8:15 AM 46.4 °F 40.7 °F 44.6 °F 93% 30.04 in 1.2 mi SSE 12.7 mph - N/A   Overcast
8:45 AM 46.4 °F 41.1 °F 46.4 °F 100% 30.04 in 1.6 mi South 11.5 mph - N/A   Mostly Cloudy
9:00 AM - - - N/A% - 1.9 mi South 11.5 mph - N/A   Mostly Cloudy
9:15 AM 48.2 °F - 48.2 °F 100% 30.04 in 2.5 mi South 10.4 mph - N/A   Mostly Cloudy
9:45 AM 50.0 °F - 48.2 °F 94% 30.04 in 3.1 mi South 12.7 mph - N/A   Mostly Cloudy
10:15 AM 51.8 °F - 48.2 °F 88% 30.04 in 5.0 mi South 13.8 mph - N/A   Mostly Cloudy
10:45 AM 53.6 °F - 48.2 °F 82% 30.04 in 6.2 mi South 12.7 mph - N/A   Mostly Cloudy
11:15 AM 55.4 °F - 50.0 °F 82% 30.01 in 6.2 mi South 15.0 mph - N/A   Mostly Cloudy
11:45 AM 57.2 °F - 50.0 °F 77% 30.01 in 6.2 mi South 13.8 mph - N/A   Mostly Cloudy
12:00 PM - - - N/A% - 6.2 mi South 13.8 mph - N/A   Mostly Cloudy
12:15 PM 57.2 °F - 51.8 °F 82% 30.01 in 6.2 mi SSW 13.8 mph - N/A   Scattered Clouds
12:45 PM 59.0 °F - 51.8 °F 77% 30.01 in 6.2 mi SSW 16.1 mph - N/A   Scattered Clouds
1:00 PM 59 °F - 51 °F 69% 30.01 in 12 mi SSW 15.7 mph - -   Partly Cloudy
1:15 PM 59.0 °F - 51.8 °F 77% 30.01 in 6.2 mi SSW 13.8 mph - N/A   Scattered Clouds
1:45 PM 57.2 °F - 51.8 °F 82% 30.01 in 6.2 mi SSW 12.7 mph - N/A   Scattered Clouds
2:15 PM 59.0 °F - 51.8 °F 77% 30.01 in 6.2 mi SSW 10.4 mph - N/A   Scattered Clouds
2:45 PM 59.0 °F - 51.8 °F 77% 30.01 in 6.2 mi SSW 11.5 mph - N/A   Scattered Clouds
3:15 PM 59.0 °F - 51.8 °F 77% 30.01 in 6.2 mi SSW 9.2 mph - N/A   Scattered Clouds
3:45 PM 57.2 °F - 51.8 °F 82% 30.01 in 6.2 mi South 5.8 mph - N/A   Scattered Clouds
4:15 PM 55.4 °F - 51.8 °F 88% 30.01 in 6.2 mi South 5.8 mph - N/A   Scattered Clouds
4:45 PM 53.6 °F - 50.0 °F 88% 30.01 in - South 5.8 mph - N/A   Clear
5:06 PM - - - N/A% - - North - - N/A   Unknown
7:00 PM 52 °F - 50 °F 89% 29.99 in - SSE 8.9 mph - -